Location: Fort Worth, Tx
(32.7431°N, 97.3695°W)
Time: 08:48:34
(UTC-04:00)

Vanguard 1 Rocket - Pass Details

Date: 24 February 2024
Orbit: 650 x 4218 km, 34.3° (Epoch: 04 October)

Event Time Altitude Azimuth Distance (km) Brightness Sun altitude
Rises 06:48:15 0° 216° (SW) 8,457 12.0 -16.6°
Reaches altitude 10° 06:54:54 10° 210° (SSW) 7,360 11.7 -15.2°
Maximum altitude 07:16:39 42° 148° (SSE) 4,104 11.0 -10.6°
Drops below altitude 10° 07:30:09 10° 84° (E) 4,768 12.6 -7.8°
Sets 07:33:19 0° 77° (ENE) 5,376 12.9 -7.1°
